Watertown, NY

8:20 PM EDT on April 28, 2017 (GMT -0400)
Watertown International

Weather History for KART - April, 2013

Change the Weather History Date:

Friday, April 12, 2013

  Actual Average Record
Temperature  
Mean Temperature 39 °F 42 °F  
Max Temperature 45 °F 53 °F 73 °F (2006)
Min Temperature 32 °F 32 °F 17 °F (1975)
Degree Days  
Heating Degree Days 26 22  
Month to date heating degree days 306 299  
Since 1 July heating degree days 6164 6806  
Cooling Degree Days 0 0  
Month to date cooling degree days 0 0  
Year to date cooling degree days 0 0  
Moisture  
Dew Point 34 °F    
Average Humidity 76    
Maximum Humidity 96    
Minimum Humidity 56    
Precipitation  
Precipitation 1.10 in 0.10 in 1.10 in (2013)
Month to date precipitation 1.86 1.16  
Year to date precipitation 7.15 8.34  
Sea Level Pressure  
Sea Level Pressure 29.78 in    
Wind  
Wind Speed 11 mph (ENE)    
Max Wind Speed 21 mph    
Max Gust Speed 29 mph    
Visibility 5 miles    
Events Rain    
T = Trace of Precipitation, MM = Missing Value Source: NWS Daily Summary

Daily Weather History Graph

Daily Weather History Graph

Search for Another Location

Airport or City:

Trip Planner

Search our weather history database for the weather conditions in past years. The results will help you decide how hot, cold, wet, or windy it might be!

Date:

Astronomy

Apr. 12, 2013 Rise Set
Actual Time 6:25 AM EDT 7:44 PM EDT
Civil Twilight 5:55 AM EDT 8:14 PM EDT
Nautical Twilight 5:19 AM EDT 8:50 PM EDT
Astronomical Twilight 4:41 AM EDT 9:28 PM EDT
Moon 7:29 AM EDT (4/12) 10:18 PM EDT (4/12)
Length of Visible Light 14h 18m
Length of Day
13h 19m
Waxing Crescent, 5% of the Moon is Illuminated
Apr 12
Waxing Crescent
Apr 18
First Quarter
Apr 25
Full
May 2
Last Quarter
May 9
New

Hourly Weather History & Observations

Time (EDT) Temp. Windchill Dew Point Humidity Pressure Visibility Wind Dir Wind Speed Gust Speed Precip Events Conditions
12:56 AM 36.0 °F 27.1 °F 21.0 °F 55% 30.07 in 10.0 mi NE 13.8 mph 23.0 mph 0.00 in   Overcast
1:56 AM 35.1 °F 24.8 °F 21.9 °F 59% 30.03 in 10.0 mi NE 17.3 mph - 0.00 in Rain Light Rain
2:56 AM 33.1 °F 23.0 °F 25.0 °F 72% 30.00 in 10.0 mi NE 15.0 mph - 0.01 in   Overcast
3:49 AM 33.8 °F 23.9 °F 26.6 °F 75% 29.97 in 6.0 mi ENE 15.0 mph - 0.01 in Rain Light Freezing Rain
3:56 AM 33.1 °F 23.0 °F 27.0 °F 78% 29.98 in 5.0 mi NE 15.0 mph - 0.03 in Rain Light Freezing Rain
4:32 AM 33.8 °F 23.5 °F 28.4 °F 81% 29.93 in 8.0 mi NE 16.1 mph 25.3 mph 0.05 in Rain Light Freezing Rain
4:56 AM 32.0 °F 20.8 °F 28.0 °F 85% 29.93 in 10.0 mi NE 17.3 mph 25.3 mph 0.05 in   Overcast
5:45 AM 32.0 °F 21.6 °F 30.2 °F 93% 29.90 in 3.0 mi NE 15.0 mph - 0.03 in Rain Rain
5:56 AM 32.0 °F 20.8 °F 30.0 °F 92% 29.91 in 3.0 mi NE 17.3 mph 28.8 mph 0.04 in Rain Light Freezing Rain
5:59 AM 32.0 °F 20.8 °F 30.2 °F 93% 29.89 in 2.0 mi ENE 17.3 mph 28.8 mph 0.02 in Rain Light Freezing Rain
6:04 AM 32.0 °F 22.1 °F 30.2 °F 93% 29.89 in 1.8 mi NE 13.8 mph 23.0 mph 0.04 in Rain Light Freezing Rain
6:13 AM 32.0 °F 20.8 °F 30.2 °F 93% 29.88 in 1.8 mi NE 17.3 mph 24.2 mph 0.10 in Rain Light Freezing Rain
6:20 AM 32.0 °F 20.1 °F 30.2 °F 93% 29.87 in 2.0 mi NE 19.6 mph 24.2 mph 0.15 in Rain Light Freezing Rain
6:37 AM 33.8 °F 23.2 °F 30.2 °F 87% 29.87 in 1.8 mi NE 17.3 mph - 0.26 in Rain Light Freezing Rain
6:42 AM 33.8 °F 23.5 °F 30.2 °F 87% 29.86 in 2.5 mi NE 16.1 mph - 0.27 in Rain Light Freezing Rain
6:45 AM 33.8 °F 24.3 °F 30.2 °F 87% 29.86 in 3.0 mi NE 13.8 mph - 0.27 in Rain Light Freezing Rain
6:56 AM 33.1 °F 23.0 °F 30.9 °F 92% 29.87 in 6.0 mi ENE 15.0 mph 20.7 mph 0.27 in Rain Light Rain
7:21 AM 33.8 °F 23.5 °F 30.2 °F 87% 29.83 in 2.5 mi ENE 16.1 mph - 0.00 in   Overcast
7:31 AM 33.8 °F 24.3 °F 30.2 °F 87% 29.83 in 4.0 mi NE 13.8 mph - 0.00 in   Overcast
7:56 AM 33.1 °F 23.4 °F 30.9 °F 92% 29.83 in 2.0 mi NE 13.8 mph - 0.01 in Rain Light Rain
8:03 AM 33.8 °F 23.2 °F 30.2 °F 87% 29.81 in 1.5 mi NE 17.3 mph - 0.00 in   Overcast
8:29 AM 33.8 °F 23.5 °F 32.0 °F 93% 29.79 in 2.0 mi NE 16.1 mph - 0.01 in   Overcast
8:42 AM 33.8 °F 23.5 °F 32.0 °F 93% 29.78 in 6.0 mi NE 16.1 mph 20.7 mph 0.01 in   Overcast
8:56 AM 34.0 °F 25.5 °F 32.0 °F 92% 29.79 in 4.0 mi NE 11.5 mph - 0.01 in Rain Light Rain
9:05 AM 33.8 °F 24.8 °F 32.0 °F 93% 29.77 in 4.0 mi NE 12.7 mph - 0.01 in Rain Rain
9:51 AM 33.8 °F 24.3 °F 32.0 °F 93% 29.73 in 2.5 mi NE 13.8 mph - 0.09 in Rain Rain
9:56 AM 34.0 °F 24.2 °F 32.0 °F 92% 29.74 in 2.5 mi NE 15.0 mph - 0.11 in Rain Rain
10:39 AM 33.8 °F 25.3 °F 33.8 °F 100% 29.72 in 3.0 mi NE 11.5 mph - 0.14 in Rain Rain
10:47 AM 35.6 °F 27.1 °F 33.8 °F 93% 29.72 in 2.0 mi NE 12.7 mph - 0.17 in Rain Heavy Rain
10:54 AM 35.6 °F 26.6 °F 33.8 °F 93% 29.72 in 1.8 mi NNE 13.8 mph - 0.20 in Rain Heavy Rain
10:56 AM 35.1 °F 26.4 °F 33.1 °F 92% 29.74 in 2.0 mi NE 12.7 mph - 0.21 in Rain Heavy Rain
11:43 AM 35.6 °F 27.5 °F 33.8 °F 93% 29.72 in 3.0 mi NE 11.5 mph - 0.14 in Rain Rain
11:56 AM 36.0 °F 28.5 °F 34.0 °F 93% 29.73 in 3.0 mi NE 10.4 mph - 0.17 in Rain Rain
12:56 PM 39.0 °F 34.0 °F 37.0 °F 93% 29.70 in 7.0 mi ENE 6.9 mph - 0.10 in Rain Light Rain
1:56 PM 41.0 °F 38.0 °F 37.9 °F 89% 29.65 in 6.0 mi East 4.6 mph - 0.03 in Rain Light Rain
2:36 PM 42.8 °F 41.1 °F 39.2 °F 87% 29.64 in 2.0 mi NNE 3.5 mph - 0.02 in Rain Light Rain
2:51 PM 42.8 °F - 39.2 °F 87% 29.63 in 8.0 mi Calm Calm - 0.03 in Rain Light Rain
2:56 PM 43.0 °F 41.3 °F 39.0 °F 86% 29.64 in 10.0 mi NE 3.5 mph - 0.03 in Rain Light Rain
3:56 PM 43.0 °F 41.3 °F 41.0 °F 93% 29.64 in 3.0 mi SSE 3.5 mph - 0.00 in Rain Light Rain
4:13 PM 42.8 °F 39.3 °F 39.2 °F 87% 29.62 in 2.5 mi SSE 5.8 mph - 0.00 in Rain Light Rain
4:21 PM 42.8 °F 39.3 °F 39.2 °F 87% 29.62 in 3.0 mi SSE 5.8 mph - 0.01 in Rain Light Rain
4:30 PM 42.8 °F 40.1 °F 39.2 °F 87% 29.62 in 2.5 mi SSE 4.6 mph - 0.01 in Rain Light Rain
4:51 PM 42.8 °F 40.1 °F 41.0 °F 93% 29.63 in 3.0 mi South 4.6 mph - 0.02 in Rain Light Rain
4:56 PM 43.0 °F 39.5 °F 41.0 °F 93% 29.63 in 3.0 mi SSE 5.8 mph - 0.02 in Rain Light Rain
5:03 PM 42.8 °F 40.1 °F 41.0 °F 93% 29.62 in 2.5 mi South 4.6 mph - 0.00 in   Overcast
5:14 PM 42.8 °F 41.1 °F 41.0 °F 93% 29.63 in 2.5 mi SSE 3.5 mph - 0.01 in   Overcast
5:22 PM 42.8 °F 40.1 °F 41.0 °F 93% 29.63 in 6.0 mi South 4.6 mph - 0.01 in   Overcast
5:56 PM 44.1 °F 40.1 °F 39.9 °F 85% 29.65 in 10.0 mi South 6.9 mph - 0.01 in   Overcast
6:56 PM 44.1 °F 38.1 °F 42.1 °F 93% 29.69 in 7.0 mi SW 11.5 mph 18.4 mph 0.00 in   Overcast
7:56 PM 45.0 °F 38.9 °F 41.0 °F 86% 29.70 in 10.0 mi SW 12.7 mph 18.4 mph N/A   Overcast
8:56 PM 44.1 °F 37.7 °F 39.9 °F 85% 29.73 in 10.0 mi SW 12.7 mph - N/A   Overcast
9:56 PM 43.0 °F 36.0 °F 39.0 °F 86% 29.75 in 10.0 mi SW 13.8 mph - N/A   Overcast
10:27 PM 42.8 °F 36.6 °F 39.2 °F 87% 29.75 in 10.0 mi SW 11.5 mph - 0.00 in   Overcast
10:56 PM 41.0 °F 35.2 °F 39.0 °F 93% 29.76 in 9.0 mi WSW 9.2 mph - 0.00 in Rain Light Rain
11:42 PM 42.8 °F 38.0 °F 39.2 °F 87% 29.75 in 10.0 mi SSW 8.1 mph - 0.00 in   Overcast
11:56 PM 42.1 °F 36.6 °F 39.0 °F 89% 29.76 in 10.0 mi SSW 9.2 mph - 0.00 in   Overcast